Location: Basse Occidentale du Courleau
(48.3833°N, 4.8333°W)
Time: 04:25:13
(UTC+00:00)

Cosmos 2181 Rocket - Pass Details

Date: 05 July 2020
Orbit: 951 x 1015 km, 82.9° (Epoch: 11 August)

Event Time Altitude Azimuth Distance (km) Brightness Sun altitude
Rises 21:19:32 0° 353° (N) 3,739 8.1 -7.8°
Reaches altitude 10° 21:22:10 10° 358° (N) 2,777 7.2 -8.1°
Maximum altitude 21:28:24 54° 75° (ENE) 1,188 4.3 -8.8°
Enters shadow 21:34:17 11° 152° (SSE) 2,645 5.6 -9.4°
